Find Starlink 4366

NORAD ID: 53227 Int'l Des: 2022-084 Owner: SPXS Country: US Constellation: starlink operational
LEOCIRCULARRETROGRADESSO

現在のビュー

3D地球を読み込み中...

Starlink 4366について

説明を読み込み中...

次回通過

Passes for default location (London). Set your location on the main map for personalized predictions.

高度履歴

Loading altitude history...

軌道要素

1 53227U 22084AQ 26146.43818606 -.00003018 00000-0 -20506-3 0 9990
2 53227 97.4398 207.4384 0002479 91.9285 268.2226 15.05667972211083
Epoch: May 26, 2026 • Age: 12 hours

現在のステータス

高度 560.8 km
速度 7.59 km/s
衛星直下点 76.52°N, 155.73°W
打ち上げ日 Jul 22, 2022
運用期間 3.8 years
タイプ internet

技術仕様

分類 Payload
質量 297.00 kg
乾燥質量 275.00 kg
総質量 297.00 kg
長さ 0.20 m
直径 2.80 m
スパン 9.00 m
形状 Box + pan
製造者 SPXS
バスタイプ Starlink
フェーズステータス In Orbit
所有者/国 SPXS/US

Most Searched